QPF
0.00 0.00 0.00 0.00 0.00 0.00 0.00 0.00 0.00 0.00 0.00 0.00 0.00 0.01 0.06 0.10 0.06 0.06 0.09 0.06 0.03 0.02 0.02 0.01 0.01 0.01 0.00 0.00 0.00 0.00 0.00 0.00 0.00 0.00 0.00 0.00 0.00 0.00 0.00 0.00 0.00 0.00 0.16
0.00 0.00 0.00 0.00 0.00 0.00 0.00 0.00 0.00 0.00 0.00 0.00 0.02 0.03 0.05 0.14 0.10 0.11 0.09 0.06 0.05 0.02 0.02 0.02 0.01 0.01 0.00 0.00 0.00 0.00 0.00 0.00 0.00 0.00 0.00 0.00 0.00 0.00 0.00 0.00 0.00 0.01 0.19
0.00 0.00 0.00 0.00 0.00 0.00 0.00 0.00 0.00 0.00 0.00 0.00 0.02 0.06 0.10 0.13 0.11 0.10 0.06 0.06 0.05 0.03 0.03 0.01 0.00 0.01 0.00 0.00 0.00 0.00 0.00 0.00 0.00 0.00 0.00 0.00 0.00 0.00 0.00 0.00 0.00 0.04 0.24
0.00 0.00 0.00 0.00 0.00 0.00 0.00 0.00 0.00 0.00 0.01 0.01 0.02 0.11 0.19 0.19 0.14 0.07 0.04 0.05 0.05 0.05 0.04 0.02 0.01 0.00 0.00 0.00 0.00 0.00 0.00 0.00 0.00 0.00 0.00 0.00 0.00 0.00 0.01 0.00 0.01 0.10 0.22
0.00 0.00 0.00 0.00 0.00 0.00 0.00 0.00 0.00 0.00 0.00 0.01 0.02 0.08 0.18 0.30 0.24 0.12 0.09 0.05 0.05 0.06 0.07 0.05 0.02 0.01 0.00 0.00 0.00 0.00 0.00 0.00 0.00 0.00 0.00 0.00 0.00 0.01 0.01 0.00 0.01 0.16 0.32
0.00 0.00 0.00 0.00 0.00 0.00 0.00 0.00 0.00 0.00 0.00 0.01 0.02 0.05 0.11 0.26 0.34 0.24 0.16 0.09 0.04 0.04 0.02 0.02 0.01 0.01 0.00 0.00 0.00 0.00 0.00 0.00 0.00 0.00 0.00 0.00 0.00 0.00 0.00 0.02 0.04 0.27 0.55
0.00 0.00 0.00 0.00 0.00 0.00 0.00 0.00 0.00 0.00 0.00 0.01 0.02 0.04 0.12 0.25 0.31 0.27 0.20 0.12 0.08 0.04 0.01 0.00 0.01 0.00 0.00 0.00 0.00 0.00 0.00 0.00 0.00 0.00 0.00 0.00 0.00 0.00 0.01 0.04 0.22 0.36 0.38
0.00 0.00 0.00 0.00 0.00 0.00 0.00 0.00 0.01 0.02 0.03 0.03 0.05 0.04 0.12 0.25 0.32 0.26 0.19 0.16 0.12 0.06 0.02 0.00 0.00 0.00 0.00 0.00 0.00 0.00 0.00 0.00 0.00 0.00 0.00 0.00 0.00 0.00 0.02 0.18 0.40 0.17 0.29
0.00 0.00 0.00 0.00 0.00 0.00 0.00 0.01 0.02 0.04 0.05 0.03 0.06 0.08 0.12 0.29 0.33 0.27 0.18 0.13 0.08 0.06 0.02 0.01 0.00 0.00 0.00 0.00 0.00 0.00 0.00 0.00 0.00 0.00 0.00 0.00 0.01 0.04 0.09 0.25 0.17 0.10 0.35
0.00 0.00 0.00 0.00 0.00 0.00 0.00 0.00 0.03 0.03 0.04 0.01 0.01 0.08 0.10 0.21 0.36 0.32 0.22 0.13 0.09 0.08 0.06 0.02 0.01 0.00 0.00 0.00 0.00 0.00 0.00 0.00 0.00 0.00 0.02 0.04 0.04 0.06 0.16 0.08 0.05 0.07 0.16
0.00 0.00 0.00 0.00 0.00 0.00 0.00 0.00 0.00 0.01 0.00 0.01 0.00 0.02 0.09 0.16 0.23 0.28 0.20 0.16 0.16 0.12 0.12 0.08 0.02 0.00 0.00 0.00 0.00 0.00 0.00 0.00 0.01 0.08 0.15 0.10 0.03 0.16 0.16 0.04 0.03 0.06 0.03
0.00 0.00 0.00 0.00 0.00 0.00 0.00 0.00 0.00 0.00 0.00 0.00 0.00 0.01 0.04 0.10 0.15 0.19 0.22 0.19 0.12 0.10 0.12 0.09 0.04 0.01 0.01 0.02 0.03 0.03 0.04 0.03 0.06 0.09 0.05 0.02 0.03 0.08 0.06 0.04 0.10 0.09 0.02
0.00 0.00 0.00 0.00 0.00 0.00 0.00 0.00 0.00 0.00 0.00 0.00 0.01 0.02 0.05 0.08 0.11 0.12 0.15 0.14 0.11 0.13 0.17 0.16 0.10 0.07 0.05 0.07 0.09 0.08 0.03 0.01 0.02 0.01 0.00 0.02 0.05 0.02 0.04 0.06 0.11 0.17 0.10
0.00 0.00 0.00 0.00 0.00 0.00 0.00 0.00 0.00 0.00 0.00 0.00 0.00 0.01 0.04 0.11 0.16 0.13 0.10 0.10 0.14 0.17 0.20 0.22 0.21 0.16 0.11 0.15 0.09 0.07 0.03 0.01 0.00 0.00 0.01 0.05 0.03 0.03 0.06 0.09 0.10 0.13 0.04
0.00 0.00 0.00 0.00 0.00 0.00 0.00 0.00 0.00 0.00 0.00 0.00 0.00 0.00 0.02 0.12 0.18 0.14 0.11 0.11 0.15 0.20 0.15 0.16 0.16 0.16 0.22 0.19 0.13 0.11 0.10 0.06 0.02 0.02 0.03 0.05 0.03 0.04 0.07 0.09 0.05 0.04 0.01
0.00 0.00 0.00 0.00 0.00 0.00 0.00 0.00 0.00 0.00 0.00 0.00 0.00 0.00 0.00 0.02 0.06 0.12 0.13 0.13 0.19 0.12 0.10 0.13 0.17 0.18 0.22 0.22 0.19 0.17 0.18 0.13 0.08 0.05 0.03 0.01 0.01 0.01 0.02 0.04 0.04 0.01 0.00
0.00 0.00 0.00 0.00 0.00 0.00 0.00 0.00 0.00 0.00 0.00 0.00 0.00 0.00 0.00 0.00 0.03 0.06 0.07 0.10 0.09 0.03 0.06 0.10 0.15 0.16 0.19 0.20 0.21 0.20 0.19 0.12 0.07 0.02 0.01 0.00 0.00 0.00 0.00 0.00 0.00 0.00 0.00
0.00 0.00 0.00 0.00 0.00 0.00 0.00 0.00 0.00 0.00 0.00 0.00 0.00 0.00 0.00 0.00 0.00 0.02 0.02 0.02 0.01 0.01 0.02 0.05 0.10 0.14 0.15 0.14 0.12 0.09 0.08 0.10 0.08 0.03 0.02 0.02 0.03 0.00 0.00 0.00 0.00 0.00 0.00
0.00 0.00 0.00 0.00 0.00 0.00 0.00 0.00 0.00 0.00 0.00 0.00 0.00 0.00 0.00 0.00 0.00 0.00 0.00 0.00 0.00 0.01 0.01 0.03 0.04 0.06 0.06 0.06 0.09 0.11 0.12 0.12 0.10 0.08 0.07 0.06 0.06 0.03 0.02 0.01 0.00 0.01 0.00
0.00 0.00 0.00 0.00 0.00 0.00 0.00 0.00 0.00 0.00 0.00 0.00 0.00 0.00 0.00 0.00 0.00 0.00 0.00 0.00 0.00 0.00 0.00 0.00 0.00 0.01 0.01 0.03 0.05 0.08 0.11 0.16 0.15 0.11 0.10 0.09 0.06 0.05 0.02 0.01 0.00 0.00 0.00
0.00 0.00 0.00 0.00 0.00 0.00 0.00 0.00 0.00 0.00 0.00 0.00 0.00 0.00 0.00 0.00 0.00 0.00 0.00 0.00 0.00 0.00 0.00 0.00 0.00 0.00 0.00 0.00 0.01 0.03 0.04 0.06 0.04 0.03 0.03 0.02 0.01 0.02 0.00 0.00 0.00 0.00 0.00
0.00 0.00 0.00 0.00 0.00 0.00 0.00 0.00 0.00 0.00 0.00 0.00 0.00 0.00 0.00 0.00 0.00 0.00 0.00 0.00 0.00 0.00 0.00 0.00 0.00 0.00 0.00 0.00 0.00 0.00 0.00 0.00 0.00 0.00 0.00 0.00 0.00 0.00 0.00 0.00 0.00 0.00 0.00
0.00 0.00 0.00 0.00 0.00 0.00 0.00 0.00 0.00 0.00 0.00 0.00 0.00 0.00 0.00 0.00 0.00 0.00 0.00 0.00 0.00 0.00 0.00 0.00 0.00 0.00 0.00 0.00 0.00 0.00 0.00 0.00 0.00 0.00 0.00 0.00 0.00 0.00 0.00 0.00 0.00 0.00 0.00
0.00 0.00 0.00 0.00 0.00 0.00 0.00 0.00 0.00 0.00 0.00 0.00 0.00 0.00 0.00 0.00 0.00 0.00 0.00 0.00 0.00 0.00 0.00 0.00 0.00 0.00 0.00 0.00 0.00 0.00 0.00 0.00 0.00 0.00 0.00 0.00 0.00 0.00 0.00 0.00 0.00 0.00 0.00
0.00 0.00 0.00 0.00 0.00 0.00 0.00 0.00 0.00 0.00 0.00 0.00 0.00 0.00 0.00 0.00 0.00 0.00 0.00 0.00 0.00 0.00 0.00 0.00 0.00 0.00 0.00 0.00 0.00 0.00 0.00 0.00 0.00 0.00 0.00 0.00 0.00 0.00 0.00 0.00 0.00 0.00 0.00
0.00 0.00 0.00 0.00 0.00 0.00 0.00 0.00 0.00 0.00 0.00 0.00 0.00 0.00 0.00 0.00 0.00 0.00 0.00 0.00 0.00 0.00 0.00 0.00 0.00 0.00 0.00 0.00 0.00 0.00 0.00 0.00 0.00 0.00 0.00 0.00 0.00 0.00 0.00 0.00 0.00 0.00 0.00
MSLP
1021.33 1020.92 1020.40 1019.77 1019.14 1018.44 1017.40 1016.88 1016.12 1015.54 1015.08 1014.74 1014.20 1013.71 1012.83 1012.31 1012.06 1011.80 1011.67 1011.66 1011.74 1011.94 1012.31 1012.77 1013.14 1013.62 1014.54 1015.32 1016.09 1016.71 1017.32 1017.93 1018.39 1018.20 1017.93 1017.77 1017.60 1017.56 1017.48 1017.86 1018.28 1018.44 1018.90
1021.39 1020.99 1020.35 1019.60 1018.64 1017.92 1017.16 1016.43 1015.59 1015.39 1014.93 1014.24 1013.78 1012.96 1012.28 1011.60 1011.29 1010.90 1010.59 1010.43 1010.48 1010.81 1011.14 1011.80 1012.41 1013.12 1013.95 1014.71 1015.62 1016.28 1017.05 1017.63 1018.12 1018.27 1018.24 1018.04 1017.82 1017.63 1017.74 1018.09 1018.53 1018.87 1019.25
1021.51 1020.98 1020.29 1019.49 1018.40 1017.68 1017.03 1016.23 1015.45 1014.96 1014.62 1014.01 1013.23 1012.27 1011.34 1010.72 1010.27 1009.78 1009.53 1009.36 1009.37 1009.66 1010.12 1010.72 1011.57 1012.33 1013.30 1014.20 1015.09 1015.94 1016.77 1017.35 1017.90 1018.26 1018.48 1018.23 1017.96 1017.69 1017.93 1018.25 1018.83 1019.21 1019.30
1021.59 1020.97 1020.52 1019.45 1018.41 1017.62 1016.97 1016.28 1015.33 1014.65 1014.60 1013.82 1013.02 1011.83 1010.51 1009.66 1009.40 1008.88 1008.58 1008.33 1008.33 1008.51 1009.06 1009.71 1010.52 1011.42 1012.48 1013.56 1014.58 1015.52 1016.41 1017.11 1017.80 1018.18 1018.35 1018.34 1018.03 1017.64 1017.84 1018.37 1019.06 1019.11 1019.22
1021.66 1021.14 1020.64 1019.51 1018.43 1017.79 1017.06 1016.33 1015.10 1014.66 1014.52 1013.60 1012.89 1011.45 1010.19 1009.46 1008.88 1008.23 1007.82 1007.48 1007.32 1007.37 1007.88 1008.79 1009.75 1010.79 1011.94 1013.08 1014.16 1015.09 1015.93 1016.75 1017.55 1018.06 1018.31 1018.16 1017.81 1017.55 1017.74 1018.43 1018.70 1018.84 1019.99
1021.80 1021.42 1020.74 1019.78 1018.90 1018.18 1017.27 1016.34 1015.60 1015.17 1014.48 1013.64 1012.70 1011.35 1010.16 1009.44 1008.47 1007.74 1007.27 1006.98 1006.72 1006.66 1006.86 1007.70 1009.10 1010.49 1011.78 1013.04 1014.12 1015.16 1015.73 1016.47 1017.18 1017.70 1018.06 1017.91 1017.36 1017.46 1017.86 1018.29 1018.22 1018.83 1019.11
1022.40 1021.80 1021.12 1020.34 1019.47 1018.59 1017.76 1016.95 1016.11 1015.74 1014.78 1013.82 1012.95 1011.44 1010.34 1009.45 1008.57 1007.79 1007.35 1006.92 1006.61 1006.71 1007.09 1007.71 1008.93 1010.45 1011.75 1012.99 1014.13 1015.22 1015.96 1016.56 1017.14 1017.45 1017.77 1017.86 1017.39 1017.40 1017.89 1018.26 1018.14 1018.58 1019.38
1023.07 1022.49 1021.76 1020.94 1020.07 1019.31 1018.55 1017.60 1016.83 1016.07 1015.23 1014.19 1013.17 1012.07 1010.85 1009.84 1009.07 1008.20 1007.47 1007.16 1007.02 1007.21 1007.63 1008.36 1009.31 1010.58 1011.92 1013.07 1014.09 1015.08 1015.82 1016.55 1017.02 1017.40 1017.75 1017.59 1017.51 1017.60 1017.69 1017.85 1018.34 1019.61 1020.74
1023.80 1023.27 1022.56 1021.77 1020.91 1020.02 1019.23 1018.27 1017.27 1016.75 1015.61 1014.82 1013.75 1012.75 1011.49 1010.60 1010.03 1008.78 1008.12 1007.65 1007.49 1007.80 1008.46 1009.28 1010.07 1011.12 1012.25 1013.18 1014.04 1015.01 1015.90 1016.48 1016.99 1017.38 1017.62 1017.75 1017.82 1017.73 1017.56 1017.12 1019.34 1019.31 1021.72
1024.61 1024.16 1023.46 1022.58 1021.75 1020.76 1020.08 1019.13 1018.03 1017.12 1016.15 1015.30 1014.44 1013.48 1012.52 1011.69 1010.98 1009.58 1009.16 1008.73 1008.36 1008.65 1009.22 1010.00 1010.82 1011.52 1012.49 1013.38 1014.10 1014.97 1015.80 1016.50 1017.02 1017.86 1018.09 1018.00 1018.27 1018.27 1018.95 1018.83 1019.16 1020.02 1021.92
1025.25 1024.78 1024.09 1023.29 1022.50 1021.53 1020.60 1019.52 1018.50 1017.42 1016.50 1015.76 1015.13 1014.29 1013.47 1012.78 1011.99 1010.91 1010.33 1009.74 1009.63 1009.72 1010.10 1010.66 1011.23 1012.01 1012.92 1013.70 1014.44 1015.08 1015.74 1016.48 1017.30 1017.93 1018.26 1018.03 1018.16 1018.66 1019.63 1019.89 1020.23 1020.11 1021.98
1025.64 1025.27 1024.70 1024.11 1023.33 1022.11 1021.30 1020.16 1018.97 1017.91 1017.15 1016.57 1016.00 1015.32 1014.63 1013.68 1013.00 1012.23 1011.70 1011.32 1011.08 1010.87 1011.38 1011.76 1012.10 1012.65 1013.53 1014.14 1014.61 1015.14 1015.81 1016.21 1016.67 1017.25 1018.18 1018.53 1019.29 1020.31 1021.58 1021.38 1021.76 1022.66 1024.44
1025.98 1025.75 1025.32 1024.81 1024.13 1023.16 1022.26 1021.20 1019.92 1018.78 1018.12 1017.64 1017.25 1016.67 1016.03 1015.22 1014.23 1013.46 1013.17 1012.77 1012.66 1012.61 1012.97 1013.27 1013.16 1013.42 1013.88 1014.35 1014.72 1015.12 1015.60 1016.29 1017.17 1018.11 1018.77 1019.80 1020.81 1021.68 1021.96 1022.52 1023.30 1024.43 1026.00
1026.46 1026.36 1025.97 1025.51 1024.84 1024.00 1023.25 1022.53 1021.51 1020.45 1019.56 1018.90 1018.54 1018.13 1017.61 1016.80 1016.00 1015.12 1014.46 1014.16 1013.97 1013.80 1013.70 1014.02 1014.45 1014.69 1014.95 1015.15 1015.77 1016.53 1017.04 1017.73 1018.16 1018.96 1020.20 1021.35 1021.68 1022.05 1022.91 1023.31 1024.49 1025.93 1027.30
1027.01 1026.92 1026.80 1026.35 1025.85 1025.17 1024.24 1023.66 1023.07 1022.27 1021.72 1020.88 1020.26 1019.67 1019.17 1018.52 1018.47 1017.50 1016.27 1015.66 1015.56 1015.41 1014.90 1015.42 1015.97 1016.55 1017.04 1017.49 1017.80 1018.15 1018.60 1018.74 1019.43 1020.73 1021.13 1021.86 1022.48 1023.09 1024.16 1024.77 1025.74 1026.63 1028.47
1027.58 1027.67 1027.69 1027.33 1026.65 1026.04 1025.36 1024.50 1023.48 1022.99 1022.22 1021.70 1021.35 1020.81 1020.41 1020.33 1019.51 1018.55 1017.63 1017.32 1017.08 1016.58 1016.41 1017.41 1018.13 1018.54 1019.00 1019.18 1019.28 1019.71 1020.12 1020.54 1021.19 1021.75 1022.45 1023.26 1023.96 1024.63 1025.62 1026.61 1027.18 1028.26 1029.95
1028.06 1028.24 1028.30 1028.12 1027.60 1027.10 1026.56 1025.97 1025.33 1024.18 1023.21 1022.61 1022.15 1021.76 1021.32 1020.85 1020.12 1019.54 1019.03 1018.57 1018.26 1016.83 1018.39 1019.33 1019.97 1020.28 1020.32 1020.51 1020.79 1021.43 1021.99 1022.43 1022.78 1023.27 1023.85 1024.79 1025.61 1026.64 1027.42 1028.64 1029.49 1030.00 1031.36
1028.57 1028.69 1028.83 1028.85 1028.63 1028.18 1027.68 1027.25 1026.78 1026.25 1025.67 1025.07 1023.95 1023.48 1022.61 1021.91 1021.18 1020.48 1020.10 1018.83 1019.09 1020.16 1020.99 1021.49 1021.95 1022.11 1022.26 1022.58 1022.96 1023.32 1023.80 1024.22 1024.55 1025.32 1026.09 1026.83 1027.53 1028.08 1029.12 1029.86 1030.66 1031.21 1032.31
1029.08 1029.23 1029.29 1029.27 1029.13 1028.93 1028.61 1028.26 1028.01 1027.67 1027.37 1027.15 1026.37 1025.47 1025.02 1024.03 1023.03 1022.62 1022.29 1022.25 1022.96 1023.40 1023.76 1023.86 1024.28 1024.32 1024.44 1024.53 1024.81 1025.15 1025.60 1026.19 1026.68 1027.07 1027.64 1028.13 1028.70 1028.99 1030.10 1031.03 1031.72 1032.30 1032.92
1029.56 1029.65 1029.67 1029.79 1029.79 1029.64 1029.50 1029.37 1029.21 1029.00 1028.92 1028.78 1028.38 1028.21 1027.48 1026.27 1025.51 1025.93 1025.77 1025.74 1025.63 1025.86 1026.00 1026.07 1026.32 1026.31 1026.36 1026.57 1026.81 1027.11 1027.43 1027.91 1028.31 1028.74 1029.24 1029.63 1030.25 1030.64 1031.11 1031.81 1032.66 1033.40 1034.19
1029.98 1030.19 1030.21 1030.19 1030.31 1030.50 1030.47 1030.42 1030.30 1030.15 1030.09 1030.05 1030.10 1029.85 1029.34 1028.78 1028.93 1028.84 1028.67 1028.38 1028.22 1028.27 1028.30 1028.11 1028.09 1028.04 1027.99 1028.10 1028.26 1028.48 1028.92 1029.63 1029.95 1030.39 1030.68 1031.30 1031.82 1032.06 1032.83 1033.38 1034.03 1034.45 1034.95
1030.22 1030.56 1030.71 1030.84 1030.85 1030.85 1031.00 1031.03 1031.01 1031.03 1031.05 1031.02 1031.05 1030.84 1030.53 1030.32 1030.38 1030.50 1030.60 1030.63 1030.57 1030.27 1030.12 1029.88 1029.83 1029.89 1029.94 1029.84 1029.93 1030.07 1030.53 1031.09 1031.53 1031.77 1032.38 1032.82 1032.97 1033.44 1033.99 1034.43 1035.32 1036.05 1036.01
1030.50 1030.76 1030.95 1031.18 1031.33 1031.43 1031.47 1031.52 1031.71 1031.78 1031.83 1031.83 1031.91 1031.99 1031.87 1031.76 1031.79 1031.93 1032.05 1032.03 1031.88 1031.79 1031.71 1031.50 1031.48 1031.58 1031.73 1031.78 1031.71 1031.69 1031.94 1032.65 1032.98 1032.85 1033.13 1033.60 1034.15 1034.78 1035.27 1035.68 1035.89 1036.23 1036.91
1030.45 1030.89 1031.25 1031.36 1031.41 1031.66 1031.94 1032.12 1032.12 1032.28 1032.45 1032.54 1032.56 1032.66 1032.75 1032.85 1033.07 1033.32 1033.56 1033.48 1033.21 1033.08 1033.03 1032.88 1032.84 1032.98 1033.15 1033.35 1033.42 1033.49 1033.67 1033.90 1033.97 1034.20 1034.39 1034.83 1035.38 1035.75 1036.11 1036.66 1037.32 1037.90 1038.38
1030.34 1030.76 1031.13 1031.55 1031.87 1031.95 1031.98 1032.13 1032.39 1032.66 1032.82 1033.04 1033.19 1033.19 1033.19 1033.27 1033.55 1033.78 1033.60 1033.86 1034.15 1034.38 1034.44 1034.53 1034.45 1034.42 1034.45 1034.50 1034.52 1034.58 1034.71 1034.76 1034.89 1035.04 1035.27 1035.73 1036.39 1036.88 1037.29 1037.64 1038.16 1038.59 1038.91
1030.05 1030.47 1030.86 1031.22 1031.62 1032.03 1032.31 1032.57 1032.64 1032.69 1032.98 1033.15 1033.20 1033.22 1033.22 1033.48 1033.76 1034.35 1034.06 1034.10 1034.43 1034.53 1034.74 1034.91 1034.97 1034.95 1035.05 1035.20 1035.33 1035.44 1035.52 1035.62 1035.79 1035.99 1036.21 1036.52 1037.07 1037.61 1037.78 1038.21 1038.55 1039.13 1039.47
Thickness
5432 5430 5428 5426 5424 5421 5424 5417 5414 5409 5400 5390 5383 5373 5365 5351 5336 5326 5313 5300 5287 5279 5273 5273 5280 5287 5299 5313 5323 5334 5344 5356 5366 5382 5404 5427 5450 5470 5491 5508 5522 5538 5549
5435 5431 5429 5428 5429 5427 5426 5422 5419 5409 5401 5393 5381 5375 5364 5350 5337 5324 5315 5301 5286 5277 5272 5270 5275 5281 5294 5308 5318 5331 5341 5353 5363 5377 5397 5420 5441 5465 5486 5504 5518 5533 5544
5435 5432 5431 5431 5434 5433 5428 5424 5420 5414 5403 5394 5382 5376 5369 5356 5341 5329 5317 5302 5291 5281 5273 5273 5278 5287 5296 5307 5318 5329 5339 5351 5362 5374 5392 5414 5437 5461 5482 5500 5515 5530 5541
5437 5435 5433 5435 5437 5437 5431 5426 5423 5419 5405 5395 5384 5379 5376 5365 5350 5336 5322 5309 5299 5290 5281 5279 5285 5296 5305 5312 5321 5330 5340 5353 5364 5376 5393 5412 5438 5462 5483 5502 5515 5531 5543
5440 5438 5434 5438 5440 5436 5433 5429 5429 5421 5408 5401 5390 5385 5383 5371 5357 5344 5329 5319 5311 5306 5297 5289 5291 5302 5311 5319 5327 5336 5347 5360 5370 5382 5396 5417 5444 5467 5489 5504 5519 5533 5537
5442 5439 5438 5440 5441 5439 5436 5434 5428 5420 5413 5406 5397 5394 5391 5379 5364 5350 5339 5328 5325 5322 5318 5311 5305 5309 5319 5326 5333 5342 5355 5369 5380 5392 5405 5429 5456 5473 5490 5506 5524 5530 5544
5441 5442 5441 5441 5440 5439 5436 5432 5429 5420 5416 5412 5404 5403 5398 5388 5373 5359 5346 5336 5335 5333 5331 5329 5326 5325 5334 5339 5344 5350 5360 5373 5387 5402 5417 5435 5462 5480 5495 5509 5526 5538 5544
5441 5441 5440 5441 5441 5438 5433 5432 5427 5422 5418 5414 5410 5406 5403 5396 5386 5374 5360 5348 5344 5343 5343 5343 5346 5347 5349 5353 5358 5362 5370 5382 5394 5406 5422 5446 5464 5482 5500 5519 5529 5532 5537
5442 5440 5440 5440 5441 5440 5436 5432 5431 5424 5422 5417 5415 5413 5410 5404 5396 5392 5381 5368 5362 5357 5355 5352 5358 5362 5365 5368 5373 5376 5382 5393 5403 5416 5433 5452 5472 5490 5508 5528 5526 5541 5530
5441 5440 5439 5441 5441 5440 5435 5432 5431 5427 5425 5423 5421 5420 5414 5411 5406 5408 5401 5387 5381 5374 5368 5368 5372 5379 5380 5383 5388 5393 5399 5406 5416 5426 5443 5465 5479 5499 5510 5526 5538 5542 5540
5441 5441 5443 5443 5441 5439 5437 5435 5433 5432 5431 5432 5428 5427 5423 5420 5419 5419 5418 5414 5402 5395 5387 5385 5387 5391 5394 5395 5400 5410 5418 5423 5431 5442 5457 5478 5494 5507 5513 5527 5537 5554 5551
5445 5447 5446 5443 5440 5442 5440 5440 5441 5441 5439 5438 5434 5434 5430 5431 5432 5432 5431 5431 5425 5423 5414 5406 5404 5408 5409 5414 5422 5431 5439 5451 5463 5474 5483 5495 5504 5509 5512 5527 5537 5542 5538
5452 5449 5447 5444 5443 5444 5446 5446 5446 5446 5445 5443 5439 5438 5435 5437 5441 5444 5444 5445 5445 5445 5439 5434 5435 5435 5441 5448 5456 5464 5474 5484 5491 5494 5500 5503 5509 5514 5523 5529 5535 5535 5534
5459 5454 5451 5451 5453 5453 5451 5448 5446 5445 5445 5446 5444 5440 5440 5443 5446 5451 5456 5458 5460 5465 5465 5462 5457 5460 5466 5475 5479 5483 5490 5497 5507 5511 5510 5510 5519 5525 5527 5535 5533 5530 5528
5467 5463 5460 5460 5461 5461 5458 5453 5447 5445 5441 5444 5443 5443 5444 5447 5444 5451 5462 5468 5470 5473 5479 5476 5474 5473 5476 5480 5488 5493 5500 5508 5510 5510 5517 5520 5524 5528 5528 5531 5531 5532 5523
5476 5472 5468 5467 5469 5468 5465 5460 5457 5452 5453 5451 5451 5451 5450 5448 5453 5461 5470 5473 5477 5484 5487 5482 5479 5481 5483 5489 5495 5499 5503 5509 5513 5518 5521 5523 5524 5525 5525 5523 5525 5522 5515
5486 5482 5477 5474 5474 5473 5471 5467 5463 5464 5464 5460 5459 5459 5461 5463 5468 5472 5475 5479 5482 5498 5488 5484 5482 5485 5491 5496 5500 5502 5504 5507 5512 5516 5519 5518 5518 5515 5516 5512 5510 5513 5507
5494 5490 5486 5482 5479 5478 5477 5473 5471 5469 5467 5464 5465 5462 5469 5472 5477 5483 5487 5498 5496 5490 5485 5483 5483 5487 5493 5497 5499 5501 5503 5505 5509 5509 5509 5510 5509 5509 5506 5505 5505 5507 5503
5501 5497 5494 5491 5488 5486 5484 5482 5480 5478 5474 5469 5471 5472 5474 5479 5484 5484 5487 5489 5483 5480 5480 5482 5483 5487 5491 5496 5498 5500 5502 5502 5502 5505 5506 5506 5505 5507 5503 5501 5500 5501 5501
5505 5502 5501 5498 5495 5493 5491 5488 5486 5484 5481 5479 5479 5471 5473 5487 5493 5484 5481 5479 5481 5479 5480 5483 5484 5487 5490 5492 5493 5495 5497 5497 5498 5498 5498 5499 5500 5501 5501 5501 5500 5498 5496
5508 5506 5503 5503 5500 5496 5494 5492 5490 5489 5487 5485 5482 5480 5481 5488 5483 5483 5482 5483 5483 5481 5481 5484 5485 5487 5488 5490 5493 5496 5496 5494 5496 5497 5496 5493 5493 5496 5494 5493 5492 5493 5492
5512 5509 5507 5505 5503 5502 5499 5496 5495 5493 5491 5490 5489 5489 5488 5490 5488 5487 5486 5484 5484 5484 5485 5487 5490 5490 5491 5493 5492 5494 5494 5493 5492 5494 5491 5491 5492 5491 5492 5491 5486 5482 5485
5515 5513 5510 5508 5506 5504 5503 5501 5498 5496 5495 5494 5492 5491 5491 5491 5490 5489 5487 5487 5488 5489 5489 5491 5492 5492 5492 5493 5494 5496 5496 5494 5494 5495 5496 5494 5492 5490 5489 5487 5487 5486 5482
5522 5517 5514 5512 5510 5508 5505 5503 5502 5500 5498 5497 5495 5495 5493 5491 5490 5488 5488 5488 5489 5490 5491 5492 5493 5493 5492 5492 5492 5493 5493 5493 5494 5494 5494 5492 5490 5488 5487 5484 5480 5475 5472
5527 5523 5519 5517 5513 5511 5509 5507 5505 5502 5501 5499 5498 5498 5497 5497 5495 5495 5494 5493 5492 5489 5487 5487 5488 5489 5489 5489 5490 5490 5490 5490 5491 5490 5490 5487 5483 5480 5477 5473 5470 5467 5464
5531 5528 5526 5523 5519 5515 5513 5509 5507 5506 5505 5504 5503 5503 5501 5498 5497 5495 5495 5494 5493 5491 5490 5490 5490 5490 5490 5489 5488 5487 5486 5485 5485 5482 5480 5479 5475 5472 5470 5465 5461 5457 5454